Regional Weather Roundup
Issued by NWS

Home | Current Version | Previous Version | Graphics & Text | Print | Product List | Glossary On
Versions: 1 2 3 4 5 6 7 8 9 10 11 12 13 14 15 16 17 18 19 20 21 22 23 24 25 26 27 28 29 30 31 32 33 34 35 36 37 38 39 40 41 42 43 44 45 46 47 48 49 50
000
ASUS45 KCYS 301810
RWRWY

WYOMING REGIONAL WEATHER ROUNDUP
NATIONAL WEATHER SERVICE CHEYENNE WY
1200 PM MDT SUN AUG 30 2015

NOTE:  "FAIR" INDICATES FEW OR NO CLOUDS BELOW 12,000 FEET
WITH NO SIGNIFICANT WEATHER AND/OR OBSTRUCTIONS TO VISIBILITY.

WYZ001-301900-
YELLOWSTONE NATIONAL PARK

CITY           SKY/WX    TMP DP  RH WIND       PRES   REMARKS
LK YELLOWSTONE   N/A     64  38  38 W10G23    30.20S
6HR MIN TEMP:  44; 6HR MAX TEMP:  65;

W YELLOWSTONE  NOT AVBL

$$
WYZ002>013-054>058-071-098>099-301900-
NORTHERN WYOMING

CITY           SKY/WX    TMP DP  RH WIND       PRES   REMARKS
JACKSON        FAIR      72  43  35 S8        30.12F
CODY           FAIR      72  50  46 N16       29.97F
GREYBULL       FAIR      81  44  27 VRB6      29.87F
6HR MIN TEMP:  67; 6HR MAX TEMP:  81;

WORLAND        FAIR      84  50  30 NW3       29.86F
6HR MIN TEMP:  60; 6HR MAX TEMP:  84;

SHERIDAN       FAIR      79  47  32 NW21G31   29.92R
6HR MIN TEMP:  61; 6HR MAX TEMP:  79;

BUFFALO        FAIR      89  40  17 CALM      29.93F
6HR MIN TEMP:  71; 6HR MAX TEMP:  89;

GILLETTE       FAIR      90  41  18 SW15      29.88F
6HR MIN TEMP:  74; 6HR MAX TEMP:  92;

HULETT         FAIR      90  43  19 SW7       29.89S
NEWCASTLE      FAIR      86  36  16 MISG      29.92F

$$
WYZ014>020-022>026-101>103-301900-
CENTRAL WYOMING

CITY           SKY/WX    TMP DP  RH WIND       PRES   REMARKS
BIG PINEY      FAIR      72  41  32 SE7       30.16F
6HR MIN TEMP:  49; 6HR MAX TEMP:  73;

PINEDALE       FAIR      72  37  28 E5        30.17F
DUBOIS         FAIR      73  37  27 NW16      30.11S
LANDER         PTSUNNY   87  38  17 SW17G29   29.98S
6HR MIN TEMP:  64; 6HR MAX TEMP:  89;

RIVERTON       FAIR      87  43  21 S12       29.98F
6HR MIN TEMP:  63; 6HR MAX TEMP:  87;

CASPER         FAIR      86  35  16 SW17      30.02S
6HR MIN TEMP:  64; 6HR MAX TEMP:  89;

DOUGLAS        FAIR      95  37  13 W16G26    29.97F HX  90
6HR MIN TEMP:  53; 6HR MAX TEMP:  95;


$$
WYZ021-027>030-104>119-301900-
SOUTHERN WYOMING

CITY           SKY/WX    TMP DP  RH WIND       PRES   REMARKS
EVANSTON       CLOUDY    75  40  28 W22G29    30.17F
6HR MIN TEMP:  64; 6HR MAX TEMP:  79;

KEMMERER       FAIR      77  36  22 SW15G22   30.19F
FORT BRIDGER   PTCLDY    79  41  25 W18G29    30.20S
ROCK SPRINGS   FAIR      79  41  25 SW16      30.15F
6HR MIN TEMP:  65; 6HR MAX TEMP:  80;

DIXON          FAIR      86  36  16 W15G25    30.20S
RAWLINS        FAIR      85  36  17 SW23G30   30.16F
6HR MIN TEMP:  58; 6HR MAX TEMP:  85;

SARATOGA       FAIR      82  37  20 W22G29    30.21S
LARAMIE        FAIR      83  35  18 W15G28    30.20F
6HR MIN TEMP:  45; 6HR MAX TEMP:  84;

CHEYENNE       FAIR      89  33  13 NW13G23   30.12F
6HR MIN TEMP:  59; 6HR MAX TEMP:  89;

TORRINGTON     FAIR      88  46  23 E7        29.94F
6HR MIN TEMP:  57; 6HR MAX TEMP:  88;

PINE BLUFFS    FAIR      91  30  11 W14G21    30.05F

$$



USA.gov is the U.S. government's official web portal to all federal, state and local government web resources and services.